Onweer van: 24-07-2021 17:59 tot: 23:59 waarschuwing voor: Onweer niveau: Oranje info button

Tervuren markt Meer informatie Tervuren markt


waarschuwing voor Onweer Meer informatie blitzortung!


Bezoek onze andere website:

Meteotemplate

Home Weather Station

Saratoga


Lokaal brand risico:
CBI


Regionaal brand risico: Meer informatie



Select another period ( hide this area )

Eenheden Periode Custom range Directly to
Metrisch Engels Beide
Dagelijkse Wekelijkse Maandelijkse Jaarlijkse
use both date-selectors for a custom range
previous Dag
With this date

WeatherUnderground graphs for this period ( click here )


Dagelijkse Samenvatting Zaterdag 24 juli 2021
Tijd Temp. ( °C ) Dew pt. ( °C ) Wind ( km/h ) van Vlaag ( km/h ) Luchtdruk ( hPa ) Humid.( % ) Rainrate ( cm )
Hoog23,3 20,0 8,0 Zuiden ( 43/129 ) 10,0 1012,5 92 -
Gemiddeld18,2 16,0 0,6 Kalm #170/220 1,9 1009,5 87 -
Laag14,7 13,3 -   0,0 1007,8 79 -
Dagelijkse Tabular details for Zaterdag 24 juli 2021
Tijd Temp. ( °C ) Dew pt. ( °C ) Wind ( km/h ) van Vlaag ( km/h ) Luchtdruk ( hPa ) Humid.( % ) Rainrate ( cm )
00:04 17,0 14,1   Kalm 2,0 1012,2 83 -
00:09 17,1 14,2   Kalm 2,0 1012,5 83 -
00:14 17,2 14,3   Kalm   1012,2 83 -
00:18 17,2 14,3   Kalm 5,0 1012,2 83 -
00:24 17,4 14,4   Kalm 5,0 1012,2 83 -
00:29 17,4 14,3   Kalm   1011,9 82 -
00:34 17,4 14,3   Kalm   1011,9 82 -
00:39 17,4 14,5   Kalm   1011,9 83 -
00:44 17,4 14,5 3,0 NW 3,0 1011,9 83 -
00:49 17,4 14,5   Kalm 2,0 1011,9 83 -
00:54 17,4 14,5   Kalm 2,0 1011,9 83 -
00:59 17,4 14,5   Kalm 2,0 1011,9 83 -
01:04 17,3 14,4 1,0 NO 3,0 1011,9 83 -
01:09 17,3 14,6   Kalm   1011,9 84 -
01:14 17,3 14,6   Kalm   1012,2 84 -
01:19 17,2 14,5   Kalm   1012,2 84 -
01:24 17,1 14,4   Kalm   1012,5 84 -
01:29 16,9 14,4   Kalm   1012,5 85 -
01:34 16,8 14,3   Kalm   1012,5 85 -
01:39 16,6 14,2   Kalm   1012,5 86 -
01:44 16,5 14,1   Kalm   1012,2 86 -
01:49 16,3 14,1   Kalm   1012,2 87 -
01:54 16,3 14,1   Kalm   1011,9 87 -
01:59 16,2 14,0   Kalm   1011,9 87 -
02:04 16,2 14,2   Kalm   1011,9 88 -
02:09 16,2 14,2   Kalm   1011,9 88 -
02:14 16,2 14,2   Kalm   1011,9 88 -
02:19 16,1 14,1   Kalm   1011,9 88 -
02:24 16,1 14,1   Kalm   1011,9 88 -
02:29 16,0 14,1   Kalm   1011,5 89 -
02:34 15,9 13,9   Kalm   1011,5 88 -
02:39 15,8 14,0   Kalm   1011,2 89 -
02:44 15,7 13,9   Kalm   1010,8 89 -
02:49 15,6 13,8   Kalm   1010,8 89 -
02:54 15,7 14,1 1,0 NNO 3,0 1010,5 90 -
02:59 15,7 14,1 6,0 Noorden 8,0 1010,5 90 -
03:04 15,8 14,2   Kalm 5,0 1010,5 90 -
03:09 15,8 14,2   Kalm 2,0 1010,5 90 -
03:14 15,9 14,3 1,0 ONO 6,0 1010,2 90 -
03:19 15,9 14,1   Kalm 3,0 1010,2 89 -
03:24 16,0 14,2   Kalm 8,0 1010,2 89 -
03:29 16,0 14,2   Kalm   1010,2 89 -
03:34 16,0 14,0   Kalm   1010,2 88 -
03:39 15,9 13,9   Kalm   1010,2 88 -
03:44 15,8 14,0   Kalm   1010,5 89 -
03:49 15,7 13,9   Kalm   1010,5 89 -
03:54 15,6 13,8   Kalm   1010,5 89 -
03:59 15,6 13,8   Kalm   1010,5 89 -
04:04 15,6 14,0   Kalm   1010,2 90 -
04:09 15,6 14,0   Kalm   1010,2 90 -
04:14 15,6 14,0   Kalm 2,0 1009,8 90 -
04:19 15,7 14,1 1,0 ONO 2,0 1009,8 90 -
04:24 15,7 14,1   Kalm   1009,8 90 -
04:29 15,7 14,1   Kalm 3,0 1009,5 90 -
04:34 15,8 14,2   Kalm   1009,5 90 -
04:39 15,8 14,2   Kalm   1009,1 90 -
04:43 15,8 14,2   Kalm   1009,1 90 -
04:49 15,8 14,0   Kalm   1009,1 89 -
04:54 15,8 14,0   Kalm   1009,1 89 -
04:59 15,8 14,0   Kalm   1009,5 89 -
05:04 15,7 13,9   Kalm   1009,5 89 -
05:09 15,6 13,8   Kalm   1009,5 89 -
05:13 15,6 13,8   Kalm   1009,8 89 -
05:19 15,4 13,6   Kalm   1009,8 89 -
05:24 15,4 13,8   Kalm   1009,5 90 -
05:29 15,3 13,7   Kalm   1009,5 90 -
05:34 15,3 13,7   Kalm   1009,5 90 -
05:39 15,2 13,6   Kalm   1009,5 90 -
05:44 15,1 13,6   Kalm   1009,5 91 -
05:49 15,1 13,6   Kalm   1009,8 91 -
05:54 15,0 13,5   Kalm   1009,8 91 -
05:59 14,9 13,4   Kalm   1010,2 91 -
06:04 14,8 13,3   Kalm   1010,2 91 -
06:09 14,8 13,3   Kalm   1010,2 91 -
06:14 14,7 13,4   Kalm   1009,8 92 -
06:19 14,8 13,5   Kalm   1009,8 92 -
06:24 15,0 13,7   Kalm 3,0 1009,5 92 -
06:29 15,1 13,8   Kalm   1009,8 92 -
06:34 15,2 13,9   Kalm   1009,8 92 -
06:39 15,2 13,9   Kalm   1009,8 92 -
06:44 15,2 13,9   Kalm   1009,8 92 -
06:47 15,2 13,9   Kalm   1009,5 92 -
06:54 15,2 13,9   Kalm   1009,5 92 -
06:59 15,3 14,0   Kalm 2,0 1009,1 92 -
07:04 15,3 14,0   Kalm 2,0 1009,1 92 -
07:09 15,4 13,9   Kalm   1009,1 91 -
07:14 15,5 14,0 1,0 Noorden 5,0 1008,8 91 -
07:19 15,7 14,2   Kalm 6,0 1008,8 91 -
07:24 15,7 14,2 5,0 Oosten 6,0 1008,5 91 -
07:29 15,8 14,2 3,0 Noorden 3,0 1008,1 90 -
07:34 15,9 14,3   Kalm 6,0 1008,1 90 -
07:39 16,1 14,5 3,0 NNW 6,0 1008,1 90 -
07:44 16,2 14,4 3,0 NNO 8,0 1007,8 89 -
07:49 16,3 14,5 1,0 NNO 3,0 1007,8 89 -
07:54 16,3 14,5   Kalm 3,0 1008,1 89 -
07:59 16,4 14,6   Kalm   1008,1 89 -
08:04 16,5 14,7   Kalm   1008,5 89 -
08:09 16,6 15,0   Kalm   1008,5 90 -
08:14 16,6 15,0   Kalm   1008,5 90 -
08:19 16,7 15,1   Kalm   1008,5 90 -
08:23 16,8 15,1   Kalm 3,0 1008,5 90 -
08:29 16,9 15,1   Kalm 2,0 1008,5 89 -
08:34 16,9 15,1   Kalm 3,0 1008,5 89 -
08:38 17,0 15,0 1,0 ZO 3,0 1008,5 88 -
08:44 17,1 15,1   Kalm   1008,5 88 -
08:49 17,2 15,2   Kalm   1008,5 88 -
08:54 17,3 15,3   Kalm   1008,5 88 -
08:59 17,3 15,3   Kalm   1008,1 88 -
09:04 17,4 15,4   Kalm   1008,5 88 -
09:09 17,4 15,4   Kalm 2,0 1008,1 88 -
09:14 17,4 15,2   Kalm 2,0 1008,1 87 -
09:19 17,4 15,2   Kalm 2,0 1008,1 87 -
09:24 17,4 15,4   Kalm   1008,1 88 -
09:29 17,4 15,4   Kalm   1008,1 88 -
09:34 17,6 15,4   Kalm   1008,1 88 -
09:39 17,6 15,4   Kalm   1008,1 87 -
09:44 17,6 15,6   Kalm   1008,1 88 -
09:49 17,6 15,4   Kalm   1008,1 87 -
09:54 17,7 15,5   Kalm   1008,5 87 -
09:59 17,8 15,6   Kalm   1008,5 87 -
10:04 17,8 15,6   Kalm   1008,5 87 -
10:09 17,9 15,7   Kalm   1008,5 87 -
10:14 17,9 15,7   Kalm   1008,5 87 -
10:19 18,0 15,7   Kalm   1008,5 87 -
10:24 18,1 15,7   Kalm   1008,5 86 -
10:29 18,1 15,7   Kalm   1008,5 86 -
10:34 18,1 15,7   Kalm   1008,5 86 -
10:39 18,1 15,7   Kalm   1008,8 86 -
10:44 18,2 15,9   Kalm 2,0 1008,5 87 -
10:49 18,2 15,8   Kalm   1008,5 86 -
10:54 18,2 15,8   Kalm 3,0 1008,8 86 -
10:59 18,2 15,8   Kalm 3,0 1008,8 86 -
11:04 18,2 15,8   Kalm 2,0 1008,5 86 -
11:09 18,2 16,0   Kalm 3,0 1008,5 87 -
11:14 18,3 16,1   Kalm 2,0 1008,5 87 -
11:19 18,3 16,1 1,0 Zuiden 3,0 1008,5 87 -
11:24 18,4 16,0 3,0 ZZO 3,0 1008,5 86 -
11:29 18,4 16,0   Kalm 3,0 1008,5 86 -
11:34 18,5 16,1   Kalm   1008,5 86 -
11:39 18,6 16,2   Kalm   1008,8 86 -
11:44 18,7 16,3   Kalm   1008,8 86 -
11:49 18,8 16,4   Kalm   1008,8 86 -
11:54 18,9 16,5   Kalm   1008,8 86 -
11:59 19,0 16,6   Kalm   1008,8 86 -
12:04 19,1 16,7   Kalm   1008,8 86 -
12:09 19,3 16,8   Kalm   1008,8 86 -
12:14 19,3 16,7   Kalm   1008,8 85 -
12:19 19,4 17,0   Kalm   1009,1 86 -
12:24 19,5 17,0   Kalm   1009,1 86 -
12:29 19,6 17,0   Kalm   1008,8 85 -
12:34 19,7 17,1   Kalm   1009,1 85 -
12:39 19,7 17,1   Kalm   1009,1 85 -
12:44 19,8 17,2   Kalm   1009,1 85 -
12:49 19,8 17,2   Kalm   1009,1 85 -
12:53 19,9 17,5   Kalm   1009,5 86 -
12:59 19,9 17,5   Kalm   1009,1 86 -
13:04 19,9 17,3 3,0 Zuiden 5,0 1009,1 85 -
13:09 19,9 17,3 1,0 Zuiden 3,0 1009,1 85 -
13:14 19,9 17,3   Kalm 3,0 1009,5 85 -
13:19 19,9 17,3 1,0 ZZO 5,0 1009,5 85 -
13:24 20,0 17,4 6,0 Zuiden 6,0 1009,5 85 -
13:29 20,1 17,5 3,0 Zuiden 10,0 1009,5 85 -
13:34 20,1 17,5 3,0 Zuiden 10,0 1009,5 85 -
13:39 20,1 17,5 6,0 Zuiden 6,0 1009,5 85 -
13:44 20,1 17,5 6,0 ZZO 6,0 1009,5 85 -
13:49 20,1 17,5 6,0 Zuiden 6,0 1009,5 85 -
13:54 20,2 17,8 1,0 Zuiden 6,0 1009,5 86 -
13:58 20,2 17,8   Kalm 6,0 1009,1 86 -
14:03 20,2 17,8 5,0 ZZO 5,0 1009,1 86 -
14:09 20,2 17,8 3,0 Zuiden 6,0 1009,1 86 -
14:14 20,2 18,0 1,0 ZZO 8,0 1009,1 87 -
14:19 20,2 18,0 5,0 Zuiden 6,0 1009,1 87 -
14:24 20,3 18,1 1,0 Zuiden 3,0 1009,1 87 -
14:29 20,3 18,1 3,0 Zuiden 8,0 1009,1 87 -
14:34 20,5 18,3 3,0 ZZO 5,0 1009,1 87 -
14:39 20,6 18,4   Kalm 5,0 1009,1 87 -
14:44 20,8 18,6 3,0 ZZO 3,0 1009,1 87 -
14:49 20,9 18,7   Kalm 3,0 1009,1 87 -
14:54 21,0 18,8   Kalm 3,0 1009,1 87 -
14:58 21,1 18,9 1,0 OZO 3,0 1009,1 87 -
15:04 21,2 18,9 1,0 OZO 5,0 1009,1 87 -
15:09 21,2 18,9 1,0 Oosten 8,0 1009,1 87 -
15:14 21,3 19,2   Kalm 8,0 1008,8 88 -
15:19 21,5 19,3 6,0 Oosten 8,0 1008,8 88 -
15:24 21,7 19,4 8,0 OZO 8,0 1008,8 87 -
15:29 22,0 19,5 1,0 Oosten 8,0 1008,8 86 -
15:34 22,2 19,7 3,0 Oosten 10,0 1008,8 86 -
15:39 22,3 19,7 3,0 ZO 10,0 1008,8 85 -
15:44 22,3 19,5 1,0 Oosten 6,0 1008,8 84 -
15:49 22,6 19,8 3,0 ZO 8,0 1008,8 84 -
15:54 22,9 20,0 1,0 ZO 8,0 1008,8 84 -
15:59 22,9 19,9 1,0 ZO 5,0 1008,8 83 -
16:04 22,9 19,7 1,0 ZZW 3,0 1008,8 82 -
16:09 22,8 19,6   Kalm 3,0 1008,8 82 -
16:14 22,8 19,8 1,0 Zuiden 2,0 1008,8 83 -
16:19 22,8 19,6   Kalm 2,0 1008,5 82 -
16:24 22,8 19,6   Kalm 2,0 1008,5 82 -
16:29 22,8 19,6   Kalm   1008,5 82 -
16:34 22,8 19,6   Kalm   1008,5 82 -
16:39 22,9 19,7   Kalm   1008,5 82 -
16:44 23,1 19,9   Kalm   1008,5 82 -
16:49 23,2 20,0   Kalm 3,0 1008,5 82 -
16:54 23,3 19,9   Kalm 2,0 1008,5 81 -
16:59 23,3 19,9 1,0 ZO 2,0 1008,5 81 -
17:04 23,3 19,7   Kalm 3,0 1008,5 80 -
17:08 23,3 19,7 1,0 ZO 3,0 1008,5 80 -
17:14 23,3 19,6   Kalm 3,0 1008,5 80 -
17:19 23,2 19,4 1,0 ZZO 3,0 1008,8 79 -
17:24 23,1 19,5   Kalm   1008,8 80 -
17:29 23,1 19,5   Kalm   1008,8 80 -
17:34 23,0 19,4   Kalm   1008,8 80 -
17:39 22,9 19,3   Kalm   1008,8 80 -
17:44 22,8 19,6   Kalm   1008,8 82 -
17:49 22,7 19,5   Kalm   1008,5 82 -
17:54 22,7 19,5   Kalm   1008,5 82 -
17:57 22,5 19,5   Kalm   1008,8 83 -
18:04 22,4 19,6   Kalm   1008,5 84 -
18:09 22,3 19,6   Kalm   1008,5 85 -
18:14 22,2 19,6   Kalm   1008,8 85 -
18:19 22,1 19,5   Kalm   1008,8 86 -
Dagelijkse Samenvatting Zaterdag 24 juli 2021
Tijd Temp. ( °C ) Dew pt. ( °C ) Wind ( km/h ) van Vlaag ( km/h ) Luchtdruk ( hPa ) Humid.( % ) Rainrate ( cm )
Hoog23,3 20,0 8,0 Zuiden ( 43/129 ) 10,0 1012,5 92 -
Gemiddeld18,2 16,0 0,6 Kalm #170/220 1,9 1009,5 87 -
Laag14,7 13,3 -   0,0 1007,8 79 -
Dagelijkse Tabular details for Zaterdag 24 juli 2021
Tijd Temp. ( °C ) Dew pt. ( °C ) Wind ( km/h ) van Vlaag ( km/h ) Luchtdruk ( hPa ) Humid.( % ) Rainrate ( cm )
00:04 17,0 14,1   Kalm 2,0 1012,2 83 -
00:09 17,1 14,2   Kalm 2,0 1012,5 83 -
00:14 17,2 14,3   Kalm   1012,2 83 -
00:18 17,2 14,3   Kalm 5,0 1012,2 83 -
00:24 17,4 14,4   Kalm 5,0 1012,2 83 -
00:29 17,4 14,3   Kalm   1011,9 82 -
00:34 17,4 14,3   Kalm   1011,9 82 -
00:39 17,4 14,5   Kalm   1011,9 83 -
00:44 17,4 14,5 3,0 NW 3,0 1011,9 83 -
00:49 17,4 14,5   Kalm 2,0 1011,9 83 -
00:54 17,4 14,5   Kalm 2,0 1011,9 83 -
00:59 17,4 14,5   Kalm 2,0 1011,9 83 -
01:04 17,3 14,4 1,0 NO 3,0 1011,9 83 -
01:09 17,3 14,6   Kalm   1011,9 84 -
01:14 17,3 14,6   Kalm   1012,2 84 -
01:19 17,2 14,5   Kalm   1012,2 84 -
01:24 17,1 14,4   Kalm   1012,5 84 -
01:29 16,9 14,4   Kalm   1012,5 85 -
01:34 16,8 14,3   Kalm   1012,5 85 -
01:39 16,6 14,2   Kalm   1012,5 86 -
01:44 16,5 14,1   Kalm   1012,2 86 -
01:49 16,3 14,1   Kalm   1012,2 87 -
01:54 16,3 14,1   Kalm   1011,9 87 -
01:59 16,2 14,0   Kalm   1011,9 87 -
02:04 16,2 14,2   Kalm   1011,9 88 -
02:09 16,2 14,2   Kalm   1011,9 88 -
02:14 16,2 14,2   Kalm   1011,9 88 -
02:19 16,1 14,1   Kalm   1011,9 88 -
02:24 16,1 14,1   Kalm   1011,9 88 -
02:29 16,0 14,1   Kalm   1011,5 89 -
02:34 15,9 13,9   Kalm   1011,5 88 -
02:39 15,8 14,0   Kalm   1011,2 89 -
02:44 15,7 13,9   Kalm   1010,8 89 -
02:49 15,6 13,8   Kalm   1010,8 89 -
02:54 15,7 14,1 1,0 NNO 3,0 1010,5 90 -
02:59 15,7 14,1 6,0 Noorden 8,0 1010,5 90 -
03:04 15,8 14,2   Kalm 5,0 1010,5 90 -
03:09 15,8 14,2   Kalm 2,0 1010,5 90 -
03:14 15,9 14,3 1,0 ONO 6,0 1010,2 90 -
03:19 15,9 14,1   Kalm 3,0 1010,2 89 -
03:24 16,0 14,2   Kalm 8,0 1010,2 89 -
03:29 16,0 14,2   Kalm   1010,2 89 -
03:34 16,0 14,0   Kalm   1010,2 88 -
03:39 15,9 13,9   Kalm   1010,2 88 -
03:44 15,8 14,0   Kalm   1010,5 89 -
03:49 15,7 13,9   Kalm   1010,5 89 -
03:54 15,6 13,8   Kalm   1010,5 89 -
03:59 15,6 13,8   Kalm   1010,5 89 -
04:04 15,6 14,0   Kalm   1010,2 90 -
04:09 15,6 14,0   Kalm   1010,2 90 -
04:14 15,6 14,0   Kalm 2,0 1009,8 90 -
04:19 15,7 14,1 1,0 ONO 2,0 1009,8 90 -
04:24 15,7 14,1   Kalm   1009,8 90 -
04:29 15,7 14,1   Kalm 3,0 1009,5 90 -
04:34 15,8 14,2   Kalm   1009,5 90 -
04:39 15,8 14,2   Kalm   1009,1 90 -
04:43 15,8 14,2   Kalm   1009,1 90 -
04:49 15,8 14,0   Kalm   1009,1 89 -
04:54 15,8 14,0   Kalm   1009,1 89 -
04:59 15,8 14,0   Kalm   1009,5 89 -
05:04 15,7 13,9   Kalm   1009,5 89 -
05:09 15,6 13,8   Kalm   1009,5 89 -
05:13 15,6 13,8   Kalm   1009,8 89 -
05:19 15,4 13,6   Kalm   1009,8 89 -
05:24 15,4 13,8   Kalm   1009,5 90 -
05:29 15,3 13,7   Kalm   1009,5 90 -
05:34 15,3 13,7   Kalm   1009,5 90 -
05:39 15,2 13,6   Kalm   1009,5 90 -
05:44 15,1 13,6   Kalm   1009,5 91 -
05:49 15,1 13,6   Kalm   1009,8 91 -
05:54 15,0 13,5   Kalm   1009,8 91 -
05:59 14,9 13,4   Kalm   1010,2 91 -
06:04 14,8 13,3   Kalm   1010,2 91 -
06:09 14,8 13,3   Kalm   1010,2 91 -
06:14 14,7 13,4   Kalm   1009,8 92 -
06:19 14,8 13,5   Kalm   1009,8 92 -
06:24 15,0 13,7   Kalm 3,0 1009,5 92 -
06:29 15,1 13,8   Kalm   1009,8 92 -
06:34 15,2 13,9   Kalm   1009,8 92 -
06:39 15,2 13,9   Kalm   1009,8 92 -
06:44 15,2 13,9   Kalm   1009,8 92 -
06:47 15,2 13,9   Kalm   1009,5 92 -
06:54 15,2 13,9   Kalm   1009,5 92 -
06:59 15,3 14,0   Kalm 2,0 1009,1 92 -
07:04 15,3 14,0   Kalm 2,0 1009,1 92 -
07:09 15,4 13,9   Kalm   1009,1 91 -
07:14 15,5 14,0 1,0 Noorden 5,0 1008,8 91 -
07:19 15,7 14,2   Kalm 6,0 1008,8 91 -
07:24 15,7 14,2 5,0 Oosten 6,0 1008,5 91 -
07:29 15,8 14,2 3,0 Noorden 3,0 1008,1 90 -
07:34 15,9 14,3   Kalm 6,0 1008,1 90 -
07:39 16,1 14,5 3,0 NNW 6,0 1008,1 90 -
07:44 16,2 14,4 3,0 NNO 8,0 1007,8 89 -
07:49 16,3 14,5 1,0 NNO 3,0 1007,8 89 -
07:54 16,3 14,5   Kalm 3,0 1008,1 89 -
07:59 16,4 14,6   Kalm   1008,1 89 -
08:04 16,5 14,7   Kalm   1008,5 89 -
08:09 16,6 15,0   Kalm   1008,5 90 -
08:14 16,6 15,0   Kalm   1008,5 90 -
08:19 16,7 15,1   Kalm   1008,5 90 -
08:23 16,8 15,1   Kalm 3,0 1008,5 90 -
08:29 16,9 15,1   Kalm 2,0 1008,5 89 -
08:34 16,9 15,1   Kalm 3,0 1008,5 89 -
08:38 17,0 15,0 1,0 ZO 3,0 1008,5 88 -
08:44 17,1 15,1   Kalm   1008,5 88 -
08:49 17,2 15,2   Kalm   1008,5 88 -
08:54 17,3 15,3   Kalm   1008,5 88 -
08:59 17,3 15,3   Kalm   1008,1 88 -
09:04 17,4 15,4   Kalm   1008,5 88 -
09:09 17,4 15,4   Kalm 2,0 1008,1 88 -
09:14 17,4 15,2   Kalm 2,0 1008,1 87 -
09:19 17,4 15,2   Kalm 2,0 1008,1 87 -
09:24 17,4 15,4   Kalm   1008,1 88 -
09:29 17,4 15,4   Kalm   1008,1 88 -
09:34 17,6 15,4   Kalm   1008,1 88 -
09:39 17,6 15,4   Kalm   1008,1 87 -
09:44 17,6 15,6   Kalm   1008,1 88 -
09:49 17,6 15,4   Kalm   1008,1 87 -
09:54 17,7 15,5   Kalm   1008,5 87 -
09:59 17,8 15,6   Kalm   1008,5 87 -
10:04 17,8 15,6   Kalm   1008,5 87 -
10:09 17,9 15,7   Kalm   1008,5 87 -
10:14 17,9 15,7   Kalm   1008,5 87 -
10:19 18,0 15,7   Kalm   1008,5 87 -
10:24 18,1 15,7   Kalm   1008,5 86 -
10:29 18,1 15,7   Kalm   1008,5 86 -
10:34 18,1 15,7   Kalm   1008,5 86 -
10:39 18,1 15,7   Kalm   1008,8 86 -
10:44 18,2 15,9   Kalm 2,0 1008,5 87 -
10:49 18,2 15,8   Kalm   1008,5 86 -
10:54 18,2 15,8   Kalm 3,0 1008,8 86 -
10:59 18,2 15,8   Kalm 3,0 1008,8 86 -
11:04 18,2 15,8   Kalm 2,0 1008,5 86 -
11:09 18,2 16,0   Kalm 3,0 1008,5 87 -
11:14 18,3 16,1   Kalm 2,0 1008,5 87 -
11:19 18,3 16,1 1,0 Zuiden 3,0 1008,5 87 -
11:24 18,4 16,0 3,0 ZZO 3,0 1008,5 86 -
11:29 18,4 16,0   Kalm 3,0 1008,5 86 -
11:34 18,5 16,1   Kalm   1008,5 86 -
11:39 18,6 16,2   Kalm   1008,8 86 -
11:44 18,7 16,3   Kalm   1008,8 86 -
11:49 18,8 16,4   Kalm   1008,8 86 -
11:54 18,9 16,5   Kalm   1008,8 86 -
11:59 19,0 16,6   Kalm   1008,8 86 -
12:04 19,1 16,7   Kalm   1008,8 86 -
12:09 19,3 16,8   Kalm   1008,8 86 -
12:14 19,3 16,7   Kalm   1008,8 85 -
12:19 19,4 17,0   Kalm   1009,1 86 -
12:24 19,5 17,0   Kalm   1009,1 86 -
12:29 19,6 17,0   Kalm   1008,8 85 -
12:34 19,7 17,1   Kalm   1009,1 85 -
12:39 19,7 17,1   Kalm   1009,1 85 -
12:44 19,8 17,2   Kalm   1009,1 85 -
12:49 19,8 17,2   Kalm   1009,1 85 -
12:53 19,9 17,5   Kalm   1009,5 86 -
12:59 19,9 17,5   Kalm   1009,1 86 -
13:04 19,9 17,3 3,0 Zuiden 5,0 1009,1 85 -
13:09 19,9 17,3 1,0 Zuiden 3,0 1009,1 85 -
13:14 19,9 17,3   Kalm 3,0 1009,5 85 -
13:19 19,9 17,3 1,0 ZZO 5,0 1009,5 85 -
13:24 20,0 17,4 6,0 Zuiden 6,0 1009,5 85 -
13:29 20,1 17,5 3,0 Zuiden 10,0 1009,5 85 -
13:34 20,1 17,5 3,0 Zuiden 10,0 1009,5 85 -
13:39 20,1 17,5 6,0 Zuiden 6,0 1009,5 85 -
13:44 20,1 17,5 6,0 ZZO 6,0 1009,5 85 -
13:49 20,1 17,5 6,0 Zuiden 6,0 1009,5 85 -
13:54 20,2 17,8 1,0 Zuiden 6,0 1009,5 86 -
13:58 20,2 17,8   Kalm 6,0 1009,1 86 -
14:03 20,2 17,8 5,0 ZZO 5,0 1009,1 86 -
14:09 20,2 17,8 3,0 Zuiden 6,0 1009,1 86 -
14:14 20,2 18,0 1,0 ZZO 8,0 1009,1 87 -
14:19 20,2 18,0 5,0 Zuiden 6,0 1009,1 87 -
14:24 20,3 18,1 1,0 Zuiden 3,0 1009,1 87 -
14:29 20,3 18,1 3,0 Zuiden 8,0 1009,1 87 -
14:34 20,5 18,3 3,0 ZZO 5,0 1009,1 87 -
14:39 20,6 18,4   Kalm 5,0 1009,1 87 -
14:44 20,8 18,6 3,0 ZZO 3,0 1009,1 87 -
14:49 20,9 18,7   Kalm 3,0 1009,1 87 -
14:54 21,0 18,8   Kalm 3,0 1009,1 87 -
14:58 21,1 18,9 1,0 OZO 3,0 1009,1 87 -
15:04 21,2 18,9 1,0 OZO 5,0 1009,1 87 -
15:09 21,2 18,9 1,0 Oosten 8,0 1009,1 87 -
15:14 21,3 19,2   Kalm 8,0 1008,8 88 -
15:19 21,5 19,3 6,0 Oosten 8,0 1008,8 88 -
15:24 21,7 19,4 8,0 OZO 8,0 1008,8 87 -
15:29 22,0 19,5 1,0 Oosten 8,0 1008,8 86 -
15:34 22,2 19,7 3,0 Oosten 10,0 1008,8 86 -
15:39 22,3 19,7 3,0 ZO 10,0 1008,8 85 -
15:44 22,3 19,5 1,0 Oosten 6,0 1008,8 84 -
15:49 22,6 19,8 3,0 ZO 8,0 1008,8 84 -
15:54 22,9 20,0 1,0 ZO 8,0 1008,8 84 -
15:59 22,9 19,9 1,0 ZO 5,0 1008,8 83 -
16:04 22,9 19,7 1,0 ZZW 3,0 1008,8 82 -
16:09 22,8 19,6   Kalm 3,0 1008,8 82 -
16:14 22,8 19,8 1,0 Zuiden 2,0 1008,8 83 -
16:19 22,8 19,6   Kalm 2,0 1008,5 82 -
16:24 22,8 19,6   Kalm 2,0 1008,5 82 -
16:29 22,8 19,6   Kalm   1008,5 82 -
16:34 22,8 19,6   Kalm   1008,5 82 -
16:39 22,9 19,7   Kalm   1008,5 82 -
16:44 23,1 19,9   Kalm   1008,5 82 -
16:49 23,2 20,0   Kalm 3,0 1008,5 82 -
16:54 23,3 19,9   Kalm 2,0 1008,5 81 -
16:59 23,3 19,9 1,0 ZO 2,0 1008,5 81 -
17:04 23,3 19,7   Kalm 3,0 1008,5 80 -
17:08 23,3 19,7 1,0 ZO 3,0 1008,5 80 -
17:14 23,3 19,6   Kalm 3,0 1008,5 80 -
17:19 23,2 19,4 1,0 ZZO 3,0 1008,8 79 -
17:24 23,1 19,5   Kalm   1008,8 80 -
17:29 23,1 19,5   Kalm   1008,8 80 -
17:34 23,0 19,4   Kalm   1008,8 80 -
17:39 22,9 19,3   Kalm   1008,8 80 -
17:44 22,8 19,6   Kalm   1008,8 82 -
17:49 22,7 19,5   Kalm   1008,5 82 -
17:54 22,7 19,5   Kalm   1008,5 82 -
17:57 22,5 19,5   Kalm   1008,8 83 -
18:04 22,4 19,6   Kalm   1008,5 84 -
18:09 22,3 19,6   Kalm   1008,5 85 -
18:14 22,2 19,6   Kalm   1008,8 85 -
18:19 22,1 19,5   Kalm   1008,8 86 -

Download your copy of this data-set  here

Our weather-data as stored at Weather Underground. Script ontwikkeld door Jim McMurry. Aangepast voor de template door Leuven-Template.eu

U vindt ons ook hier:

Het Weer Aktueel

UK Metoffice

European Weather Network

WeatherCloud

Weather Underground

Benelux Weer Netwerk

AWEKAS

Citizen Weather Observer Program (CWOP)

HAMweather, WeatherForYou, PWS Weather

Apparatuur in gebruik:

Weerstation
Davis VP2

Weerprogramma
Meteobridge

Weercomputer
Meteobridge NANO

Davis VP2

Meteobridge

Meteobridge NANO